Location: Newark
(14.6561°N, 91.2669°W)
Time: 01:31:07
(UTC+00:00)

N. Korean satellite - Visible Passes

Search period start: 20 September 2019 00:00
Search period end: 30 September 2019 00:00
Orbit: 455 x 509 km, 97.2° (Epoch: 18 September)

Date Brightness Start Highest point End Pass type
(mag) Time Alt. Az. Time Alt. Az. Time Alt. Az.
20 Sep 8.5 11:25:15 10° NNE 11:28:23 34° E 11:31:34 10° SSE visible
21 Sep 9.9 11:01:23 10° ENE 11:03:11 14° E 11:04:59 10° SE visible
22 Sep 10.5 00:30:42 10° WSW 00:31:34 11° W 00:32:25 10° W visible
24 Sep 9.1 11:17:56 10° NE 11:20:52 26° E 11:23:51 10° SSE visible
25 Sep 10.3 10:54:57 10° E 10:55:39 10° E 10:56:21 10° ESE visible
26 Sep 10.1 00:22:10 10° SW 00:24:03 14° W 00:25:55 10° WNW visible
28 Sep 9.6 11:10:41 10° NE 11:13:19 20° E 11:16:01 10° SSE visible
